Weather History for Marianna, FL

Change the Weather History Date:

Tuesday, August 27, 2013

  Actual Average Record
Temperature  
Mean Temperature 79 °F 81 °F  
Max Temperature 90 °F 91 °F 102 °F (2011)
Min Temperature 67 °F 72 °F 67 °F (2013)
Degree Days  
Heating Degree Days 0    
Month to date heating degree days 0  
Since 1 June heating degree days 0  
Since 1 July heating degree days 0  
Cooling Degree Days 14    
Month to date cooling degree days 443  
Year to date cooling degree days 1793  
Since 1 June cooling degree days 1357  
Growing Degree Days 29 (Base 50)    
Moisture  
Dew Point 68 °F    
Average Humidity 69    
Maximum Humidity 90    
Minimum Humidity 47    
Precipitation  
Precipitation 0.00 in 0.12 in 0.83 in (2002)
Month to date precipitation 13.99 4.91  
Year to date precipitation 50.44 37.81  
Sea Level Pressure  
Sea Level Pressure 30.07 in    
Wind  
Wind Speed 3 mph (NE)    
Max Wind Speed 8 mph    
Max Gust Speed 12 mph    
Visibility 10 miles    
Events      
T = Trace of Precipitation, MM = Missing Value Source: NWS Daily Summary

Daily Weather History Graph

Daily Weather History Graph

Search for Another Location

Airport:

Trip Planner

Search our weather history database for the weather conditions in past years. The results will help you decide how hot, cold, wet, or windy it might be!

Date:

Astronomy

Aug. 27, 2013 Rise Set
Actual Time 6:14 AM CDT 7:09 PM CDT
Civil Twilight 5:49 AM CDT 7:34 PM CDT
Nautical Twilight 5:20 AM CDT 8:03 PM CDT
Astronomical Twilight 4:50 AM CDT 8:33 PM CDT
Moon 11:32 PM CDT (8/27) 12:41 PM CDT (8/27)
Length of Visible Light 13h 44m
Length of Day
12h 55m
Waning Gibbous, 57% of the Moon is Illuminated
Aug 27
Waning Gibbous
Aug 28
Last Quarter
Sep 5
New
Sep 12
First Quarter
Sep 19
Full

Hourly Weather History & Observations

Time (CDT) Temp. Heat Index Dew Point Humidity Pressure Visibility Wind Dir Wind Speed Gust Speed Precip Events Conditions
12:53 AM 70.0 °F - 66.0 °F 87% 30.12 in 10.0 mi Calm Calm - N/A   Clear
1:53 AM 70.0 °F - 66.0 °F 87% 30.10 in 10.0 mi Calm Calm - N/A   Clear
2:53 AM 69.1 °F - 64.9 °F 87% 30.09 in 10.0 mi Calm Calm - N/A   Clear
3:53 AM 68.0 °F - 64.9 °F 90% 30.08 in 10.0 mi NE 3.5 mph - N/A   Clear
4:53 AM 68.0 °F - 64.0 °F 87% 30.08 in 10.0 mi Calm Calm - N/A   Clear
5:53 AM 68.0 °F - 64.0 °F 87% 30.09 in 10.0 mi Calm Calm - N/A   Clear
6:53 AM 69.1 °F - 64.9 °F 87% 30.10 in 10.0 mi Calm Calm - N/A   Clear
7:53 AM 72.0 °F - 66.9 °F 84% 30.12 in 10.0 mi ENE 3.5 mph - N/A   Partly Cloudy
8:04 AM 73.4 °F - 68.0 °F 83% 30.11 in 10.0 mi NE 3.5 mph - N/A   Mostly Cloudy
8:51 AM 75.2 °F - 69.8 °F 83% 30.12 in 10.0 mi ENE 4.6 mph - N/A   Overcast
8:53 AM 75.9 °F - 70.0 °F 82% 30.11 in 10.0 mi NE 5.8 mph - N/A   Overcast
9:04 AM 77.0 °F - 69.8 °F 78% 30.11 in 10.0 mi NE 4.6 mph - N/A   Mostly Cloudy
9:11 AM 78.8 °F - 69.8 °F 74% 30.11 in 10.0 mi East 5.8 mph - N/A   Scattered Clouds
9:53 AM 80.1 °F 83.6 °F 71.1 °F 74% 30.10 in 10.0 mi ENE 4.6 mph - N/A   Clear
10:30 AM 82.4 °F 87.2 °F 71.6 °F 70% 30.11 in 10.0 mi Variable 6.9 mph - N/A   Mostly Cloudy
10:53 AM 82.0 °F 85.9 °F 70.0 °F 67% 30.10 in 10.0 mi East 5.8 mph - N/A   Scattered Clouds
11:53 AM 84.0 °F 88.4 °F 70.0 °F 63% 30.08 in 10.0 mi East 4.6 mph - N/A   Partly Cloudy
12:53 PM 87.1 °F 92.0 °F 70.0 °F 57% 30.06 in 10.0 mi Variable 3.5 mph - N/A   Partly Cloudy
1:53 PM 88.0 °F 91.4 °F 68.0 °F 51% 30.04 in 10.0 mi ESE 3.5 mph - N/A   Clear
2:53 PM 88.0 °F 91.4 °F 68.0 °F 51% 30.03 in 10.0 mi NE 8.1 mph - N/A   Partly Cloudy
3:53 PM 90.0 °F 92.8 °F 66.9 °F 46% 30.01 in 10.0 mi Calm Calm - N/A   Scattered Clouds
4:53 PM 89.1 °F 92.1 °F 66.9 °F 48% 30.00 in 10.0 mi Variable 3.5 mph - N/A   Clear
5:53 PM 88.0 °F 90.7 °F 66.9 °F 49% 30.01 in 10.0 mi Calm Calm - N/A   Clear
6:53 PM 84.0 °F 88.4 °F 70.0 °F 63% 30.01 in 10.0 mi North 3.5 mph - N/A   Clear
7:53 PM 81.0 °F 84.9 °F 71.1 °F 72% 30.02 in 10.0 mi Calm Calm - N/A   Clear
8:53 PM 79.0 °F - 72.0 °F 79% 30.03 in 10.0 mi NNE 4.6 mph - N/A   Mostly Cloudy
9:53 PM 79.0 °F - 70.0 °F 74% 30.04 in 10.0 mi NE 3.5 mph - N/A   Overcast
10:53 PM 77.0 °F - 69.1 °F 76% 30.04 in 10.0 mi NE 4.6 mph - N/A   Scattered Clouds
11:53 PM 75.0 °F - 68.0 °F 79% 30.03 in 10.0 mi NE 3.5 mph - N/A   Clear